GLOBALSTAR M091

Last updated on Sat Sep 05 2026 00:03:16 GMT+0000 (Coordinated Universal Time)

1 37741U 11033C 26247.29908141 -.00000100 00000+0 19831-4 0 9992 2 37741 52.0026 1.0644 0000828 104.8303 278.6544 12.62264630699272
UTC large
Height (km)
Speed (km/s)
/
Latitude / Longitude
Inclination (degrees)
Orbital Period (minutes)
Azimuth
Elevation
Range (km)
Doppler Factor

Next 0 passes for location: London (51.5072 / 0.1276)

No passes found over London.
GLOBALSTAR M091